SCP
0 0 0 0 0 0 0 0 0 0 0 0 0 0 0 0 0 0 0 0 0 0
0 0 0 0 0 0 0 0 0 0 0 0 0 0 0 0 0 0 0 0 0 0
0 0 0 0 0 0 0 0 0 0 0 0 0 0 0 0 0 0 0 0 0 0
0 0 0 0 0 0 0 0 0 0 0 0 0 0 0 0 0 0 0 0 0 0
0 0 0 0 0 0 0 0 0 0 0 0 0 0 0 0 0 0 0 0 0 0
0 0 0 0 0 0 0 0 0 0 0 0 0 0 0 0 0 0 0 0 0 0
0 0 0 0 0 0 0 0 0 0 0 0 0 0 0 0 0 0 0 0 0 0
0 0 0 0 0 0 0 0 0 0 0 0 -0 -0 0 0 0 0 0 0 0 0
0 0 0 0 0 0 0 0 0 0 0 0 -0 -0 0 0 0 0 0 0 0 0
0 0 0 0 0 0 0 0 0 0 0 -0 -0 0 0 0 0 0 0 0 0 0
0 0 0 0 0 0 0 0 0 0 -0 -0 0 0 0 0 0 0 0 0 0 0
0 0 0 0 0 0 0 0 0 0 0 0 -0 -0 -0 0 0 0 0 0 0 0
0 0 0 0 0 0 0 0 0 0 0 -0 -0 -0 -0 0 0 0 0 0 0 0
0 0 0 0 0 0 0 0 0 0 -0 -0 -0 -0 0 0 0 0 0 0 0 0
Wind_Speed_500mb
41 35 30 25 21 17 16 18 21 24 28 32 34 36 39 42 47 50 54 56 57 58
37 30 26 22 17 15 15 16 19 24 28 31 34 38 43 47 51 55 58 60 63 65
34 27 22 18 14 13 14 16 20 24 27 30 34 40 45 50 55 60 62 63 63 64
31 25 20 15 12 11 12 16 20 23 26 30 38 45 51 55 59 62 65 65 66 66
29 23 17 12 9 8 12 17 22 24 29 37 44 50 55 60 62 65 66 68 69 71
29 22 16 10 6 7 12 18 22 27 34 41 48 54 59 64 66 67 70 72 73 73
30 22 14 8 3 7 12 17 23 30 38 46 53 57 62 65 68 70 71 70 69 70
30 21 13 7 1 5 10 16 25 34 43 51 55 58 63 67 69 71 70 68 66 65
31 21 14 7 4 5 11 19 28 35 44 51 56 59 62 64 68 68 67 67 65 62
33 21 15 11 6 4 12 21 28 37 47 53 55 59 61 60 63 63 61 60 61 62
33 26 19 13 9 10 14 20 30 40 48 52 54 57 55 56 58 59 59 59 61 62
37 32 21 18 15 12 15 21 32 42 49 54 55 55 54 56 57 61 63 62 58 61
46 35 27 21 18 16 17 23 34 42 50 53 53 55 55 53 54 58 60 61 64 59
48 37 29 25 23 21 21 27 36 43 48 52 55 54 51 47 44 51 55 60 64 68
Wind_Direction_500mb
147 143 136 126 112 96 74 53 40 25 14 6 0 356 352 349 346 343 338 334 329 326
146 141 133 123 109 87 68 48 27 13 5 2 358 355 352 347 343 340 336 332 328 324
148 143 134 120 102 79 53 32 15 7 3 1 357 351 348 346 342 338 333 329 325 322
151 143 133 118 94 68 37 17 8 3 1 359 353 347 342 340 336 334 331 330 329 325
154 147 139 126 103 58 20 13 5 4 359 355 349 343 338 336 335 334 331 329 326 323
162 158 153 142 99 43 20 7 4 0 355 350 345 340 337 333 333 331 329 327 324 321
171 167 160 148 98 27 6 360 356 353 349 347 343 339 336 333 330 328 327 325 321 320
177 171 168 169 123 351 350 347 349 350 347 343 340 338 334 331 329 327 327 325 322 320
182 178 177 193 232 329 346 346 346 344 344 341 340 336 333 330 329 329 327 326 325 326
186 186 202 214 229 302 332 336 339 343 345 343 338 334 334 332 330 329 328 329 331 333
191 208 212 216 233 277 312 327 337 343 344 340 337 335 335 332 332 329 329 333 337 340
213 212 215 223 238 269 304 323 337 340 340 340 339 337 337 335 332 329 330 336 339 337
210 212 218 226 243 266 289 316 329 334 342 341 340 340 339 335 330 325 329 335 335 332
211 213 219 231 244 260 287 310 325 334 338 339 338 339 337 332 324 324 332 324 324 324
Wind_Speed_850mb
41 35 30 25 21 17 16 18 21 24 28 32 34 36 39 42 47 50 54 56 57 58
37 30 26 22 17 15 15 16 19 24 28 31 34 38 43 47 51 55 58 60 63 65
34 27 22 18 14 13 14 16 20 24 27 30 34 40 45 50 55 60 62 63 63 64
31 25 20 15 12 11 12 16 20 23 26 30 38 45 51 55 59 62 65 65 66 66
29 23 17 12 9 8 12 17 22 24 29 37 44 50 55 60 62 65 66 68 69 71
29 22 16 10 6 7 12 18 22 27 34 41 48 54 59 64 66 67 70 72 73 73
30 22 14 8 3 7 12 17 23 30 38 46 53 57 62 65 68 70 71 70 69 70
30 21 13 7 1 5 10 16 25 34 43 51 55 58 63 67 69 71 70 68 66 65
31 21 14 7 4 5 11 19 28 35 44 51 56 59 62 64 68 68 67 67 65 62
33 21 15 11 6 4 12 21 28 37 47 53 55 59 61 60 63 63 61 60 61 62
33 26 19 13 9 10 14 20 30 40 48 52 54 57 55 56 58 59 59 59 61 62
37 32 21 18 15 12 15 21 32 42 49 54 55 55 54 56 57 61 63 62 58 61
46 35 27 21 18 16 17 23 34 42 50 53 53 55 55 53 54 58 60 61 64 59
48 37 29 25 23 21 21 27 36 43 48 52 55 54 51 47 44 51 55 60 64 68
Wind_Direction_850mb
147 143 136 126 112 96 74 53 40 25 14 6 0 356 352 349 346 343 338 334 329 326
146 141 133 123 109 87 68 48 27 13 5 2 358 355 352 347 343 340 336 332 328 324
148 143 134 120 102 79 53 32 15 7 3 1 357 351 348 346 342 338 333 329 325 322
151 143 133 118 94 68 37 17 8 3 1 359 353 347 342 340 336 334 331 330 329 325
154 147 139 126 103 58 20 13 5 4 359 355 349 343 338 336 335 334 331 329 326 323
162 158 153 142 99 43 20 7 4 0 355 350 345 340 337 333 333 331 329 327 324 321
171 167 160 148 98 27 6 360 356 353 349 347 343 339 336 333 330 328 327 325 321 320
177 171 168 169 123 351 350 347 349 350 347 343 340 338 334 331 329 327 327 325 322 320
182 178 177 193 232 329 346 346 346 344 344 341 340 336 333 330 329 329 327 326 325 326
186 186 202 214 229 302 332 336 339 343 345 343 338 334 334 332 330 329 328 329 331 333
191 208 212 216 233 277 312 327 337 343 344 340 337 335 335 332 332 329 329 333 337 340
213 212 215 223 238 269 304 323 337 340 340 340 339 337 337 335 332 329 330 336 339 337
210 212 218 226 243 266 289 316 329 334 342 341 340 340 339 335 330 325 329 335 335 332
211 213 219 231 244 260 287 310 325 334 338 339 338 339 337 332 324 324 332 324 324 324